User: anonymous   Login
Location: Unspecified
(0.0000°N, 0.0000°E)
Time: 03:59:13
(UTC+02:00)
Language:

Cosmos 1538 Rocket - Orbit

View from above orbital plane
View from above orbital plane
View from above satellite
View from above satellite

Ground track
Ground track

The orbit data is extracted from the following two-line orbital elements,

1 14760U 84019B   16268.00508387  .00000034  00000-0  20775-4 0  9996
2 14760  74.0418 250.1319 0027850 178.0679 236.6023 14.35795989705380
Epoch (UTC): 24 September 2016 00:07:19
Eccentricity: 0.0027850
inclination: 74.0418°
perigee height: 752 km
apogee height: 792 km
right ascension of ascending node: 250.1319°
argument of perigee: 178.0679°
revolutions per day: 14.35795989
mean anomaly at epoch: 236.6023°
orbit number at epoch: 70538

The dashed part of the orbit path shows where the satellite is in the earth's shadow,  

DLR